Regional Weather Roundup
Issued by NWS

Home | Current Version | Previous Version | Graphics & Text | Print | Product List | Glossary On
Versions: 1 2 3 4 5 6 7 8 9 10 11 12 13 14 15 16 17 18 19 20 21 22 23 24 25 26 27 28 29 30 31 32 33 34 35 36 37 38 39 40 41 42 43 44 45 46 47 48 49 50
000
ASUS44 KMEG 220800
RWRTN
TENNESSEE HOURLY STATE WEATHER ROUNDUP
NATIONAL WEATHER SERVICE MEMPHIS TN
300 AM CDT FRI AUG 22 2014

TNZ002-004-019-021-049-052-054-088>092-220900-
WEST TENNESSEE

CITY           SKY/WX    TMP DP  RH WIND       PRES   REMARKS
MEMPHIS INTL   CLEAR     79  73  82 SW7       30.05S
NWS MEMPHIS      N/A     77 N/A N/A MISG        N/A
JACKSON        PTCLDY    73  71  93 CALM      30.04F
DYERSBURG      PTCLDY    75  64  69 CALM      30.04F
UNION CITY     CLEAR     73  72  94 S5        30.01F
PARIS          CLEAR     72  70  94 CALM      30.04F
LEXINGTON      CLEAR     72  72 100 CALM      30.05F
SAVANNAH       CLEAR     73  73 100 CALM      30.07S
$$

TNZ008-025-027-028-033-062-065-066-220900-
NORTH MIDDLE TENNESSEE

CITY           SKY/WX    TMP DP  RH WIND       PRES   REMARKS
NASHVILLE      PTCLDY    76  73  91 CALM      30.06F
CLARKSVILLE    CLEAR     75  72  90 CALM      30.03F
COOKEVILLE       N/A     70  70 100 CALM      30.09S VSB 3/4
CROSSVILLE     PTCLDY    71  68  90 CALM      30.14F
$$

TNZ061-075-076-078-094-096-097-220900-
SOUTH MIDDLE TENNESSEE

CITY           SKY/WX    TMP DP  RH WIND       PRES   REMARKS
FAYETTEVILLE   CLEAR     72  70  94 CALM      30.10S
TULLAHOMA      CLEAR     70  66  88 CALM      30.11F
WINCHESTER     CLEAR     72  72 100 CALM      30.10F
COLUMBIA       CLEAR     73  73 100 CALM      30.06F
SHELBYVILLE    CLEAR     72  72 100 CALM      30.09F
$$

TNZ017-018-042-046-047-220900-
NORTHEAST TENNESSEE

CITY           SKY/WX    TMP DP  RH WIND       PRES   REMARKS
TRI CITIES     FOG       72  71  97 CALM      30.11S VSB 1
ELIZABETHTON   PTSUNNY   64  64 100 CALM      30.12S FOG
$$

TNZ012-013-036-069-073-074-220900-
CENTRAL EAST TENNESSEE

CITY           SKY/WX    TMP DP  RH WIND       PRES   REMARKS
KNOXVILLE      CLEAR     74  69  85 W5        30.07F
OAK RIDGE      PTCLDY    74  72  93 CALM      30.09F
GATLINBURG     SUNNY     70  66  88 CALM      30.08S
$$

TNZ083-085-099-220900-
SOUTHEAST TENNESSEE

CITY           SKY/WX    TMP DP  RH WIND       PRES   REMARKS
CHATTANOOGA    CLEAR     75  72  90 CALM      30.09S
$$

SKY/WX REPORTED AS FAIR MEANS FEW OR NO CLOUDS BELOW
12 THOUSAND FEET.




USA.gov is the U.S. government's official web portal to all federal, state and local government web resources and services.